Location: *
(40.4000°N, 15.1200°E)
Time: 22:10:45
(UTC+00:00)

SL-08 RB Rocket - Pass Details

Date: 09 April 2020
Orbit: 646 x 684 km, 97.8° (Epoch: 24 May)

Event Time Altitude Azimuth Distance (km) Brightness Sun altitude
Exits shadow 18:56:20 13° 167° (SSE) 1,891 5.7 -15.9°
Maximum altitude 19:00:25 89° 257° (WSW) 675 3.7 -16.6°
Drops below altitude 10° 19:05:03 10° 347° (NNW) 2,116 6.8 -17.4°
Sets 19:07:19 0° 348° (NNW) 3,040 7.7 -17.8°
